Change the Weather History Date:

Tuesday, March 19, 2013

  Actual Average Record
Temperature  
Mean Temperature 30 °F -  
Max Temperature 36 °F 42 °F 77 °F (2012)
Min Temperature 26 °F 26 °F 18 °F (2014)
Degree Days  
Heating Degree Days 34    
Moisture  
Dew Point 29 °F    
Average Humidity 88    
Maximum Humidity 93    
Minimum Humidity 85    
Precipitation  
Precipitation 0.83 in - - ()
Sea Level Pressure  
Sea Level Pressure 29.82 in    
Wind  
Wind Speed 12 mph (NE)    
Max Wind Speed 23 mph    
Max Gust Speed 36 mph    
Visibility 2 miles    
Events Fog , Rain , Snow    
Averages and records for this station are not official NWS values.
T = Trace of Precipitation, MM = Missing Value Source: NWS Daily Summary

Daily Weather History Graph

Daily Weather History Graph

Search for Another Location

Airport or City:

Trip Planner

Search our weather history database for the weather conditions in past years. The results will help you decide how hot, cold, wet, or windy it might be!

Date:

Astronomy

Mar. 19, 2013 Rise Set
Actual Time 6:48 AM EDT 6:55 PM EDT
Civil Twilight 6:20 AM EDT 7:23 PM EDT
Nautical Twilight 5:47 AM EDT 7:56 PM EDT
Astronomical Twilight 5:13 AM EDT 8:29 PM EDT
Moon 11:28 AM EDT (3/19) 1:46 AM EDT (3/19)
Length of Visible Light 13h 02m
Length of Day
12h 06m
Waxing Crescent, 49% of the Moon is Illuminated
Mar 19
Waxing Crescent
Mar 19
First Quarter
Mar 27
Full
Apr 3
Last Quarter
Apr 10
New

Hourly Weather History & Observations

Time (EDT) Temp. Windchill Dew Point Humidity Pressure Visibility Wind Dir Wind Speed Gust Speed Precip Events Conditions
12:18 AM 30.2 °F 26.7 °F 26.6 °F 86% 30.24 in 1.0 mi ESE 3.5 mph - 0.02 in Snow Light Snow
12:32 AM 30.2 °F 23.4 °F 26.6 °F 86% 30.23 in 0.8 mi SE 6.9 mph - 0.03 in Snow Light Snow
12:45 AM 30.2 °F 22.6 °F 26.6 °F 86% 30.22 in 1.0 mi ESE 8.1 mph - 0.04 in Snow Light Snow
12:53 AM 30.9 °F 21.2 °F 27.0 °F 85% 30.21 in 0.8 mi SE 12.7 mph - 0.05 in Snow Light Snow
1:53 AM 30.0 °F 21.7 °F 27.0 °F 88% 30.16 in 0.8 mi East 9.2 mph - 0.04 in Snow Light Snow
2:53 AM 30.9 °F 21.2 °F 28.0 °F 89% 30.11 in 0.5 mi ESE 12.7 mph - 0.03 in Fog , Snow Snow
3:53 AM 30.9 °F 19.8 °F 28.0 °F 89% 30.09 in 0.5 mi East 16.1 mph 23.0 mph 0.04 in Fog , Snow Snow
4:00 AM 30.2 °F 20.8 °F 28.4 °F 93% 30.10 in 0.5 mi East 11.5 mph - 0.00 in Fog , Snow Snow
4:53 AM 30.9 °F 20.2 °F 28.9 °F 92% 30.07 in 0.5 mi East 15.0 mph 21.9 mph 0.04 in Fog , Snow Snow
5:27 AM 30.2 °F 21.3 °F 28.4 °F 93% 30.06 in 0.5 mi ESE 10.4 mph - 0.04 in Fog , Snow Snow
5:53 AM 30.9 °F 20.7 °F 28.0 °F 89% 30.06 in 0.5 mi East 13.8 mph 24.2 mph 0.09 in Fog , Snow Snow
6:13 AM 32.0 °F 22.5 °F 28.4 °F 87% 30.06 in 0.8 mi East 12.7 mph 23.0 mph 0.02 in Snow Light Snow
6:23 AM 32.0 °F 22.5 °F 28.4 °F 87% 30.06 in 1.0 mi East 12.7 mph 20.7 mph 0.02 in Snow Light Snow
6:45 AM 32.0 °F 22.1 °F 28.4 °F 87% 30.04 in 0.8 mi East 13.8 mph - 0.03 in Snow Light Snow
6:53 AM 32.0 °F 21.6 °F 28.9 °F 88% 30.03 in 0.8 mi East 15.0 mph 23.0 mph 0.04 in Snow Light Snow
7:39 AM 32.0 °F 22.1 °F 30.2 °F 93% 30.01 in 1.2 mi East 13.8 mph 19.6 mph 0.01 in Snow Light Snow
7:53 AM 32.0 °F 22.1 °F 30.0 °F 92% 30.00 in 0.8 mi East 13.8 mph 19.6 mph 0.02 in Snow Light Snow
8:53 AM 33.1 °F 23.0 °F 30.0 °F 89% 29.97 in 0.8 mi East 15.0 mph 24.2 mph 0.02 in Snow Light Snow
9:53 AM 33.1 °F 23.0 °F 30.0 °F 89% 29.94 in 0.8 mi East 15.0 mph 20.7 mph 0.01 in Snow Light Snow
10:53 AM 34.0 °F 25.5 °F 30.9 °F 89% 29.90 in 0.8 mi East 11.5 mph 20.7 mph 0.04 in Snow Light Snow
11:00 AM 33.8 °F 25.3 °F 30.2 °F 87% 29.90 in 1.2 mi East 11.5 mph 20.7 mph 0.00 in Snow Light Snow
11:07 AM 33.8 °F 24.3 °F 30.2 °F 87% 29.90 in 0.8 mi East 13.8 mph 20.7 mph 0.01 in Snow Light Snow
11:53 AM 34.0 °F 23.8 °F 30.9 °F 89% 29.85 in 2.0 mi East 16.1 mph 25.3 mph 0.03 in Snow Light Snow
12:53 PM 35.1 °F 25.9 °F 32.0 °F 89% 29.80 in 2.0 mi East 13.8 mph 24.2 mph 0.01 in Rain Light Rain
1:30 PM 35.6 °F 27.5 °F 32.0 °F 87% 29.78 in 1.5 mi ENE 11.5 mph 24.2 mph 0.00 in Rain Light Rain
1:53 PM 35.1 °F 25.5 °F 32.0 °F 89% 29.74 in 1.5 mi East 15.0 mph 26.5 mph 0.01 in Rain Light Rain
2:53 PM 35.1 °F 27.4 °F 32.0 °F 89% 29.70 in 1.2 mi ENE 10.4 mph 19.6 mph 0.03 in Rain Light Rain
3:40 PM 33.8 °F 25.3 °F 30.2 °F 87% 29.73 in 0.8 mi NNE 11.5 mph - 0.14 in Snow Light Snow
3:53 PM 34.0 °F 25.5 °F 30.9 °F 89% 29.71 in 0.5 mi NNE 11.5 mph 24.2 mph 0.17 in Fog , Snow Snow
4:20 PM 33.8 °F 25.3 °F 30.2 °F 87% 29.73 in 1.5 mi North 11.5 mph 19.6 mph 0.04 in Snow Light Snow
4:37 PM 33.8 °F 23.2 °F 30.2 °F 87% 29.64 in 0.8 mi NE 17.3 mph 34.5 mph 0.06 in Snow Light Snow
4:53 PM 34.0 °F 24.2 °F 30.9 °F 89% 29.63 in 0.8 mi NE 15.0 mph 28.8 mph 0.08 in Snow Light Snow
5:12 PM 33.8 °F 23.9 °F 30.2 °F 87% 29.64 in 1.0 mi NNE 15.0 mph 26.5 mph 0.01 in Snow Light Snow
5:32 PM 33.8 °F 22.5 °F 30.2 °F 87% 29.61 in 2.0 mi NE 19.6 mph 29.9 mph 0.02 in Snow Light Snow
5:53 PM 34.0 °F 24.2 °F 30.9 °F 89% 29.60 in 2.5 mi NE 15.0 mph 35.7 mph 0.02 in Snow Light Snow
6:01 PM 33.8 °F 23.2 °F 30.2 °F 87% 29.61 in 3.0 mi NE 17.3 mph 27.6 mph 0.00 in   Overcast
6:38 PM 33.8 °F 23.5 °F 30.2 °F 87% 29.61 in 2.5 mi NNE 16.1 mph 26.5 mph 0.00 in Rain Light Rain
6:53 PM 34.0 °F 23.0 °F 30.9 °F 89% 29.60 in 2.5 mi NE 18.4 mph 27.6 mph 0.00 in Rain Light Rain
7:04 PM 33.8 °F 23.2 °F 30.2 °F 87% 29.62 in 1.8 mi NNE 17.3 mph 29.9 mph 0.01 in Rain Light Rain
7:12 PM 33.8 °F 23.9 °F 30.2 °F 87% 29.61 in 2.5 mi NNE 15.0 mph 29.9 mph 0.01 in Rain Light Rain
7:53 PM 34.0 °F 23.8 °F 30.9 °F 89% 29.59 in 2.5 mi NNE 16.1 mph 26.5 mph 0.03 in Rain Light Rain
8:09 PM 33.8 °F 23.5 °F 30.2 °F 87% 29.59 in 3.0 mi NNE 16.1 mph 26.5 mph 0.00 in Rain Light Rain
8:53 PM 34.0 °F 23.4 °F 30.9 °F 89% 29.59 in 3.0 mi NNE 17.3 mph 28.8 mph 0.01 in Rain Light Rain
9:10 PM 33.8 °F 22.8 °F 30.2 °F 87% 29.61 in 2.0 mi North 18.4 mph 28.8 mph 0.00 in Snow Light Snow
9:20 PM 33.8 °F 22.8 °F 30.2 °F 87% 29.61 in 1.2 mi North 18.4 mph 28.8 mph 0.00 in Snow Light Snow
9:43 PM 33.8 °F 22.8 °F 30.2 °F 87% 29.64 in 0.8 mi North 18.4 mph 24.2 mph 0.01 in Snow Light Snow
9:53 PM 32.0 °F 19.2 °F 30.0 °F 92% 29.63 in 0.8 mi NNW 23.0 mph 29.9 mph 0.02 in Snow Light Snow
10:22 PM 28.4 °F 16.2 °F 26.6 °F 93% 29.67 in 1.0 mi NW 17.3 mph 24.2 mph 0.00 in Snow Light Snow
10:41 PM 28.4 °F 15.8 °F 24.8 °F 86% 29.67 in 1.8 mi NW 18.4 mph 24.2 mph 0.00 in Snow Light Snow
10:45 PM 28.4 °F 16.6 °F 24.8 °F 86% 29.67 in 2.0 mi NW 16.1 mph 24.2 mph 0.00 in Snow Light Snow
10:53 PM 28.0 °F 14.9 °F 25.0 °F 88% 29.66 in 2.0 mi NNW 19.6 mph - 0.00 in Snow Light Snow
11:12 PM 28.4 °F 16.2 °F 24.8 °F 86% 29.67 in 3.0 mi NNW 17.3 mph 24.2 mph 0.00 in Snow Light Snow
11:35 PM 26.6 °F 12.7 °F 23.0 °F 86% 29.66 in 9.0 mi NNW 20.7 mph - 0.00 in   Overcast
11:53 PM 27.0 °F 15.2 °F 23.0 °F 85% 29.66 in 10.0 mi NW 15.0 mph 27.6 mph 0.00 in   Overcast